Burns, OR

12:19 AM PDT on August 24, 2017 (GMT -0700)
Burns Municipal

Weather History for KBNO - October, 2011

Change the Weather History Date:

Wednesday, October 26, 2011

  Actual Average Record
Temperature  
Mean Temperature 31 °F 41 °F  
Max Temperature 49 °F 57 °F 75 °F (1944)
Min Temperature 12 °F 26 °F 12 °F (2011)
Degree Days  
Heating Degree Days 34 24  
Month to date heating degree days 495 507  
Since 1 July heating degree days 714 926  
Cooling Degree Days 0 0  
Month to date cooling degree days 0 0  
Year to date cooling degree days 144 215  
Moisture  
Dew Point 17 °F    
Average Humidity 58    
Maximum Humidity 92    
Minimum Humidity 23    
Precipitation  
Precipitation T in 0.03 in 0.45 in (1940)
Month to date precipitation 1.34 0.62  
Year to date precipitation 9.64 8.04  
Sea Level Pressure  
Sea Level Pressure 30.38 in    
Wind  
Wind Speed 3 mph (WNW)    
Max Wind Speed 10 mph    
Max Gust Speed 10 mph    
Visibility 10 miles    
Events Snow    
T = Trace of Precipitation, MM = Missing Value Source: NWS Daily Summary

Daily Weather History Graph

Daily Weather History Graph

Search for Another Location

Airport or City:

Trip Planner

Search our weather history database for the weather conditions in past years. The results will help you decide how hot, cold, wet, or windy it might be!

Date:

Astronomy

Oct. 26, 2011 Rise Set
Actual Time 7:23 AM PDT 5:55 PM PDT
Civil Twilight 6:54 AM PDT 6:24 PM PDT
Nautical Twilight 6:20 AM PDT 6:58 PM PDT
Astronomical Twilight 5:47 AM PDT 7:31 PM PDT
Moon 7:19 AM PDT (10/26) 5:38 PM PDT (10/26)
Length of Visible Light 11h 30m
Length of Day
10h 31m
Waning Crescent, 0% of the Moon is Illuminated
Oct 26
Waning Crescent
Oct 26
New
Nov 2
First Quarter
Nov 10
Full
Nov 18
Last Quarter

Hourly Weather History & Observations

Time (PDT) Temp. Windchill Dew Point Humidity Pressure Visibility Wind Dir Wind Speed Gust Speed Precip Events Conditions
12:53 AM 25.0 °F 17.1 °F 18.0 °F 75% 30.40 in 10.0 mi West 6.9 mph - N/A   Clear
1:53 AM 21.0 °F 12.4 °F 15.1 °F 78% 30.41 in 10.0 mi West 6.9 mph - N/A   Clear
2:53 AM 19.9 °F 12.1 °F 16.0 °F 85% 30.41 in 10.0 mi West 5.8 mph - N/A   Clear
3:53 AM 19.0 °F 11.1 °F 16.0 °F 88% 30.40 in 10.0 mi West 5.8 mph - N/A   Clear
4:53 AM 16.0 °F 8.8 °F 12.9 °F 88% 30.42 in 10.0 mi WNW 4.6 mph - N/A   Clear
6:53 AM 12.9 °F 6.9 °F 10.0 °F 88% 30.47 in 10.0 mi WNW 3.5 mph - N/A   Clear
7:53 AM 15.1 °F - 10.0 °F 80% 30.48 in 10.0 mi Calm Calm - N/A   Clear
8:53 AM 25.0 °F - 18.0 °F 75% 30.49 in 10.0 mi Calm Calm - N/A   Clear
9:53 AM 30.9 °F 27.5 °F 21.9 °F 69% 30.46 in 10.0 mi East 3.5 mph - N/A   Clear
10:53 AM 36.0 °F - 21.0 °F 55% 30.45 in 10.0 mi Calm Calm - N/A   Clear
11:53 AM 39.9 °F - 21.0 °F 47% 30.43 in 10.0 mi Calm Calm - N/A   Clear
12:53 PM 42.1 °F - 19.0 °F 40% 30.40 in 10.0 mi Calm Calm - N/A   Clear
1:53 PM 44.1 °F 42.5 °F 16.0 °F 32% 30.38 in 10.0 mi South 3.5 mph - N/A   Clear
2:53 PM 46.0 °F 44.8 °F 16.0 °F 30% 30.35 in 10.0 mi SW 3.5 mph - N/A   Clear
3:53 PM 46.9 °F - 10.9 °F 23% 30.34 in 10.0 mi Calm Calm - N/A   Clear
4:53 PM 46.0 °F - 10.0 °F 23% 30.33 in 10.0 mi Calm Calm - N/A   Clear
5:53 PM 42.1 °F - 15.1 °F 34% 30.32 in 10.0 mi Calm Calm - N/A   Partly Cloudy
6:53 PM 39.0 °F 35.7 °F 19.9 °F 46% 30.34 in 10.0 mi North 4.6 mph - N/A   Partly Cloudy
7:53 PM 37.0 °F 34.5 °F 21.0 °F 52% 30.35 in 10.0 mi NNE 3.5 mph - N/A   Overcast
8:53 PM 37.0 °F 34.5 °F 21.9 °F 54% 30.32 in 9.0 mi West 3.5 mph - N/A   Overcast
9:53 PM 37.0 °F 32.4 °F 21.0 °F 52% 30.30 in 8.0 mi NNW 5.8 mph - 0.00 in Snow Light Snow
10:53 PM 37.0 °F 31.0 °F 21.9 °F 54% 30.28 in 10.0 mi NNW 8.1 mph - 0.00 in   Overcast
11:53 PM 32.0 °F - 21.0 °F 64% 30.27 in 10.0 mi Calm Calm - N/A   Clear